Shipshewana, Indiana
Current Conditions -  °F | °C
As of 5:55 PM on Saturday 20 Dec 2014 (Local Time) from KIRS Reporting Station
Light Snow Light Snow  
Wind Chill: 28°   Ceiling: 2100
Heat Index: 28°   Visibility: 5mi
Dew Point: 27°   Wind: 0mph
Humidity: 93%   Direction: NA
Pressure: 30.26"   Gusts: NA
Location:  41.67°N, 85.58°W
Report Text: KIRS 202255Z AUTO 00000KT 5SM -SN OVC021 M02/M03 A3026 RMK AO2
Loading
Personal Weather Stations






























Interactive Weather Map New forecast layout! Learn more

10-Day Weather Forecast

Advertisements
Track Severe Weather on mobile